Regional Weather Roundup
Issued by NWS

Home | Current Version | Previous Version | Text Only | Print | Product List | Glossary On
Versions: 1 2 3 4 5 6 7 8 9 10 11 12 13 14 15 16 17 18 19 20 21 22 23 24 25 26 27 28 29 30 31 32 33 34 35 36 37 38 39 40 41 42 43 44 45 46 47 48 49
000
ASUS45 KSLC 040210
RWRUT

UTAH REGIONAL WEATHER ROUNDUP
NATIONAL WEATHER SERVICE SALT LAKE CITY UT
800 PM MDT SUN MAY 03 2015

UTZ001>011-023>025-040300-

NORTHERN UTAH

CITY           SKY/WX    TMP DP  RH WIND       PRES   REMARKS
BRIGHAM CITY   MOCLDY    68  38  33 SE6       29.86F
HILL AFB       MOCLDY    69  41  36 N7        29.87R
LOGAN          CLEAR     62  48  60 W6        29.88F
OGDEN          PTCLDY    69  39  33 N13       29.85R
PROVO AIRPORT  MOCLDY    70  37  30 NW17G29   29.86R
SALT LAKE CITY PTCLDY    71  42  35 N17       29.83R
VERNAL         MOCLDY    63  37  38 SE7       29.94R
WENDOVER       CLOUDY    70  36  28 N18       29.84F
HEBER CITY     MOCLDY    66  32  28 NE8       29.89S
WEST JORDAN    CLEAR     70  45  40 NW16      29.86R

$$

UTZ012>022-026-027-040300-

SOUTHERN/CENTRAL UTAH

CITY           SKY/WX    TMP DP  RH WIND       PRES   REMARKS
BLANDING       MOCLDY    62  36  38 S16       30.06R
BRYCE CANYON   CLOUDY    49  35  58 SW8       30.09S
CEDAR CITY     MOCLDY    62  34  35 SE25G33   29.94S
DELTA          MOCLDY    71  29  21 S16G22    29.85R
HANKSVILLE     CLEAR     72  32  23 CALM      29.89S
MILFORD        CLOUDY    68  33  27 S14G21    29.90R
MOAB/CYNLANDS  MOCLDY    72  31  22 W6        29.86F
PRICE          MOCLDY    63  32  31 N7        29.95F
ST GEORGE      MOCLDY    73  39  29 E21       29.84R
KANAB          CLOUDY    61  39  44 CALM      30.03R

$$

REGIONAL REPORTS     COLORADO/ARIZONA

CITY           SKY/WX    TMP DP  RH WIND       PRES   REMARKS
CRAIG, CO      MOCLDY    55  38  52 N9        30.02R
GRAND JUNCTION CLOUDY    67  34  29 SW13      29.92R
RIFLE          CLOUDY    63  40  42 E9        29.98R
MONTROSE       LGT RAIN  59  41  51 S22       30.03R
CORTEZ         CLEAR     63  34  33 CALM      30.01R
PAGE, AZ       MOCLDY    71  37  28 NW8G20    29.91S
GRAND CANYON   MOCLDY    50  39  66 NE5       30.07S
KINGMAN        CLEAR     77  36  22 SW16      29.83F
FLAGSTAFF      PTCLDY    58  31  35 SW7       30.05S

$$

REGIONAL REPORTS    NEVADA/IDAHO/WYOMING

CITY           SKY/WX    TMP DP  RH WIND       PRES   REMARKS
LAS VEGAS, NV  PTCLDY    86  28  12 SW21      29.67S
ELY            MOCLDY    66  21  18 NW7       29.91R
ELKO           CLOUDY    63  35  35 NW10      29.90F
POCATELLO, ID  PTCLDY    67  39  35 S6        29.86S
BURLEY         CLEAR     66  41  40 S8        29.82S
EVANSTON, WY   PTCLDY    53  39  59 NE15G24   30.02R
ROCK SPRINGS   LGT RAIN  50  39  66 NW18G26   30.07R
KEMMERER       CLOUDY    45  41  87 E7        30.07S

$$



USA.gov is the U.S. government's official web portal to all federal, state and local government web resources and services.